This is the latest recevied weather packets stored in our database for station/object WB0OCV. If no packets are shown the sender has not sent any weather packets the latest 10 day(s).
| Time | Temp. | Humidity | Pressure | Rain* | Wind** | Luminosity | Snow |
|---|---|---|---|---|---|---|---|
| 1778016026 | 16.11° C | 72% | 1013.8 hPa | 0 mm | - | 273 W/m² | - |
| 1778015723 | 16.11° C | 73% | 1014.1 hPa | 0 mm | - | 295 W/m² | - |
| 1778015420 | 16.11° C | 72% | 1014 hPa | 0 mm | - | 310 W/m² | - |
| 1778015116 | 16.67° C | 71% | 1013.9 hPa | 0 mm | - | 327 W/m² | - |
| 1778014814 | 16.67° C | 72% | 1013.7 hPa | 0 mm | - | 345 W/m² | - |
| 1778014512 | 16.67° C | 71% | 1013.8 hPa | 0 mm | - | 362 W/m² | - |
| 1778014209 | 16.67° C | 71% | 1013.9 hPa | 0 mm | - | 377 W/m² | - |
| 1778013906 | 16.67° C | 71% | 1013.8 hPa | 0 mm | - | 392 W/m² | - |
| 1778013603 | 16.67° C | 71% | 1013.7 hPa | 0 mm | - | 408 W/m² | - |
| 1778013299 | 17.22° C | 70% | 1013.7 hPa | 0 mm | - | 424 W/m² | - |
| 1778012996 | 17.22° C | 71% | 1013.6 hPa | 0 mm | - | 441 W/m² | - |
| 1778012693 | 16.67° C | 70% | 1013.7 hPa | 0 mm | - | 453 W/m² | - |
| 1778012389 | 17.22° C | 71% | 1013.7 hPa | 0 mm | - | 469 W/m² | - |
| 1778012086 | 16.67° C | 70% | 1013.7 hPa | 0 mm | - | 481 W/m² | - |
| 1778011784 | 17.22° C | 71% | 1013.8 hPa | 0 mm | - | 496 W/m² | - |
| 1778011481 | 16.67° C | 70% | 1014 hPa | 0 mm | - | 510 W/m² | - |
| 1778011176 | 17.22° C | 69% | 1014.1 hPa | 0 mm | - | 525 W/m² | - |
| 1778010874 | 17.22° C | 70% | 1014 hPa | 0 mm | - | 538 W/m² | - |
| 1778010571 | 17.22° C | 69% | 1014.1 hPa | 0 mm | - | 552 W/m² | - |
| 1778010269 | 17.22° C | 70% | 1013.9 hPa | 0 mm | - | 566 W/m² | - |
| 1778009968 | 17.22° C | 69% | 1014.1 hPa | 0 mm | - | 579 W/m² | - |
| 1778009666 | 18.33° C | 66% | 1014.1 hPa | 0 mm | - | 590 W/m² | - |
| 1778009364 | 17.78° C | 67% | 1014 hPa | 0 mm | - | 600 W/m² | - |
| 1778009062 | 17.78° C | 68% | 1014.1 hPa | 0 mm | - | 610 W/m² | - |
| 1778008759 | 17.78° C | 69% | 1014.1 hPa | 0 mm | - | 623 W/m² | - |
* Rain latest hour (hover to see other rain measurements)
** Current wind speed in m/s (hover to see current wind gust speed)